Location: Praha
(50.0830°N, 14.4670°E)
Time: 14:52:59
(UTC+01:00)

ISS - Pass Details

Date: 16 March 2019
Orbit: 408 x 411 km, 51.6° (Epoch: 25 March)

Event Time Altitude Azimuth Distance (km) Brightness Sun altitude
Exits shadow 04:47:36 16° 198° (SSW) 1,180 -1.8 -14.7°
Drops below altitude 10° 04:48:54 10° 177° (S) 1,466 -1.1 -14.5°
Sets 04:51:21 0° 157° (SSE) 2,288 0.1 -14.1°
